Temperature
18 18 17 16 16 15 14 13 13 12 12 12 12 11 11 11 11 11 10 10 10 10 10 10 10 11 11 11 11 11 12 12 12 11 11 11 11 12 12 13 13 13 13
19 18 17 16 16 15 14 13 13 12 12 11 11 11 11 11 10 10 10 10 10 10 10 10 10 10 11 11 12 12 12 11 11 10 11 11 11 11 11 12 12 12 12
19 19 17 16 16 15 14 13 12 12 12 11 11 11 11 10 10 10 10 10 10 10 10 10 10 11 11 11 12 12 12 11 10 10 10 10 10 10 11 11 11 11 12
19 19 17 17 16 15 14 13 13 12 12 11 11 11 10 10 10 10 10 10 10 10 10 11 11 11 11 11 12 12 12 11 10 10 10 10 10 10 10 10 11 11 11
18 18 18 17 16 15 14 13 13 12 11 11 11 10 10 10 10 10 10 10 10 10 10 11 11 11 11 12 12 12 11 11 10 10 10 10 10 10 10 10 10 10 10
18 18 18 17 16 15 14 13 13 12 11 11 10 10 10 10 10 10 10 10 11 11 11 11 11 11 11 12 12 12 11 11 10 10 10 10 10 9 9 10 10 10 10
18 17 18 16 16 15 14 13 12 12 11 11 10 10 10 10 10 10 10 10 11 11 11 11 11 11 11 12 11 11 11 11 10 10 10 10 10 10 10 10 10 10 11
17 17 17 16 15 14 13 12 12 11 11 10 10 10 10 9 10 10 10 10 10 11 11 11 11 11 11 11 11 11 11 11 10 10 10 10 10 10 10 11 11 11 11
17 16 17 16 15 14 13 12 12 11 11 10 10 10 9 9 9 10 10 10 10 11 11 11 11 11 11 11 11 11 11 10 10 10 10 11 10 10 11 11 11 11 11
16 15 16 16 15 14 13 12 11 11 10 10 10 9 9 9 9 9 10 10 10 11 11 11 11 11 11 11 11 11 10 10 10 10 10 11 11 11 11 11 11 11 11
16 15 15 15 14 13 12 12 11 10 10 10 9 9 9 9 9 9 9 10 10 10 10 10 10 10 10 11 10 10 10 10 10 10 10 11 11 11 11 11 11 11 11
16 15 14 14 13 13 12 11 11 10 10 10 9 9 9 9 9 9 9 9 9 10 10 10 10 10 10 10 11 10 10 10 10 10 10 11 11 11 11 11 11 11 11
16 15 14 13 13 12 11 11 11 10 10 10 9 9 9 8 8 8 8 9 9 9 10 10 10 10 10 10 10 10 10 10 10 10 10 11 11 11 11 11 11 10 10
16 15 14 13 13 12 11 11 11 10 10 10 9 9 9 8 8 8 8 8 9 9 9 9 9 9 9 9 9 9 9 10 10 10 10 10 10 10 11 11 11 11 10
16 15 14 13 13 12 11 11 10 10 10 10 9 9 9 8 8 8 8 8 8 8 8 8 8 8 8 8 8 9 9 9 9 10 10 10 10 10 10 10 10 10 10
16 15 14 13 13 12 11 11 11 10 10 9 9 9 9 8 8 8 8 8 8 8 7 7 7 7 7 7 7 8 8 8 9 9 9 10 10 10 10 10 10 10 10
16 15 14 13 12 12 11 11 10 10 10 9 9 9 8 8 8 8 8 8 7 7 7 7 7 7 7 7 7 7 7 8 8 8 8 9 9 10 10 10 10 10 10
15 14 14 13 12 12 11 11 10 10 10 9 9 9 8 8 8 8 8 8 7 7 7 7 7 7 7 7 7 7 7 7 7 8 8 8 9 9 9 10 10 10 10
15 14 14 13 12 12 11 11 10 10 9 9 9 9 9 8 8 8 8 8 7 7 7 7 7 7 7 7 6 6 7 7 7 7 8 8 8 9 9 9 9 9 9
14 14 14 13 12 12 11 11 10 10 10 10 9 9 9 9 8 8 8 8 7 7 7 7 7 6 6 6 6 6 7 7 7 8 8 8 8 8 8 8 8 8 8
14 13 13 13 12 12 11 11 10 10 10 9 9 9 9 9 8 8 8 8 7 7 7 7 6 6 6 6 5 6 6 7 8 8 8 8 8 8 7 7 7 7 7
13 13 13 13 12 12 11 11 10 10 10 10 9 9 9 9 8 8 8 8 8 7 7 7 7 6 6 6 5 4 4 6 7 7 7 7 7 7 7 6 6 6 6
13 13 13 13 12 12 12 11 11 10 10 10 9 9 9 9 9 8 8 8 8 7 7 7 7 6 6 6 5 4 4 4 4 5 6 6 6 6 6 6 5 5 5
13 13 13 13 12 12 12 11 11 10 10 9 9 9 9 9 8 8 8 8 7 7 7 7 6 6 5 5 5 5 4 4 3 3 4 5 5 5 5 5 5 5 5
13 13 13 13 12 12 12 11 11 10 10 9 9 8 8 8 8 8 7 7 7 7 7 6 6 6 6 5 5 5 4 4 3 2 2 4 4 5 5 4 4 4 4
13 13 12 12 12 12 11 11 10 10 9 9 8 8 8 7 7 7 7 7 7 7 6 6 6 6 5 5 5 4 4 3 3 3 2 2 2 3 3 3 3 4 4
Wind_Speed
11 20 22 21 18 16 14 13 12 11 11 12 12 12 12 13 13 13 14 14 14 14 14 15 15 16 16 17 17 17 17 17 18 18 18 18 18 18 18 18 17 16 18
14 22 23 22 19 17 15 14 13 12 11 11 12 12 12 12 13 13 13 13 13 14 14 14 15 15 15 15 16 15 15 15 15 15 16 17 17 17 17 17 16 15 17
16 23 23 22 20 18 16 15 13 12 11 11 11 11 11 12 12 12 12 12 12 12 13 13 13 14 14 14 14 14 13 13 13 14 15 14 15 15 16 16 16 16 16
18 23 22 23 21 19 17 16 14 13 12 12 11 11 11 11 11 11 11 11 11 11 11 12 12 12 12 13 12 12 11 11 12 13 14 14 13 13 14 14 14 14 14
16 22 22 24 21 19 18 16 15 13 12 11 11 10 10 10 10 10 10 10 10 10 10 10 11 11 11 11 11 10 10 9 10 12 13 13 13 12 12 12 12 12 12
13 21 23 24 22 20 18 17 16 14 12 12 11 10 10 10 9 9 9 9 8 8 9 9 9 9 9 9 9 9 9 10 9 12 13 13 11 10 10 10 10 10 11
12 20 24 24 22 20 18 17 16 14 13 12 11 10 9 9 9 9 8 7 7 7 7 7 7 8 8 8 8 7 8 9 8 8 10 11 9 8 8 8 8 8 8
11 18 24 23 22 20 19 17 16 15 13 12 11 10 9 9 9 8 7 6 6 5 5 5 5 5 6 6 6 6 6 8 8 6 7 9 7 6 6 6 6 6 6
12 15 21 21 20 20 19 18 17 15 14 13 11 10 9 9 8 8 7 6 5 4 3 3 3 3 3 3 4 4 5 6 8 6 4 5 4 4 4 3 4 4 4
10 11 17 18 19 18 18 18 17 16 14 13 12 11 10 9 8 8 7 6 5 4 3 2 1 0 1 1 2 3 4 7 9 6 1 1 1 3 4 3 4 4 4
8 10 13 15 17 17 17 17 17 16 15 14 13 12 11 10 10 10 10 9 7 5 5 4 4 4 4 5 5 5 6 8 9 6 3 2 4 6 7 7 6 7 7
9 9 10 12 15 16 15 16 16 15 15 14 13 14 13 12 11 10 11 11 9 7 7 7 7 7 8 10 10 9 9 11 10 9 8 8 9 10 11 11 10 10 10
11 10 9 11 15 15 12 13 13 13 14 15 14 15 14 12 9 10 11 11 10 9 10 11 11 11 12 11 8 10 11 10 8 9 9 11 12 13 14 14 14 14 14
11 11 9 9 11 13 13 11 12 11 11 11 12 13 12 9 7 8 9 11 13 13 12 11 11 12 12 12 10 11 12 11 12 13 13 14 15 16 17 18 18 18 18
10 11 9 9 9 10 10 9 9 10 11 12 12 12 11 8 6 7 7 9 10 10 10 9 9 10 10 11 11 11 11 13 14 15 16 17 18 19 20 21 21 21 21
8 11 9 8 9 9 7 6 7 9 11 12 12 13 13 10 9 7 7 7 8 9 9 9 9 9 8 9 9 11 12 14 16 18 19 20 21 22 23 24 24 25 25
8 10 9 8 8 9 7 7 8 9 10 9 11 13 14 12 10 8 6 6 8 10 10 9 9 8 5 5 6 9 11 14 16 17 19 20 21 23 25 26 27 27 27
8 9 9 6 7 9 7 7 6 7 8 8 8 10 12 13 12 9 6 6 9 9 8 5 3 4 5 5 6 6 8 11 14 17 19 20 20 21 24 27 28 28 29
8 9 9 7 6 7 7 6 5 4 4 5 5 6 7 8 9 8 6 7 8 7 5 4 4 4 5 6 6 7 6 6 9 14 14 19 21 22 22 25 28 29 30
9 9 9 7 5 7 5 5 4 3 2 2 3 4 6 7 8 7 6 6 7 4 4 4 5 5 5 6 8 8 8 8 8 9 12 17 19 21 22 23 24 25 29
9 9 9 8 6 6 4 4 4 3 2 2 3 5 6 7 8 7 5 5 5 4 5 6 5 6 5 4 5 6 7 10 13 13 11 11 12 18 20 21 21 22 23
8 8 8 8 7 7 5 4 3 3 2 2 1 2 4 5 6 6 5 4 4 4 6 6 6 5 5 4 3 4 5 5 6 10 8 10 10 11 12 18 19 20 21
8 8 8 8 8 7 6 5 3 2 1 1 1 1 3 4 4 4 5 5 4 4 5 6 6 7 6 5 5 5 4 5 5 5 6 6 6 6 6 11 15 19 21
8 8 9 8 8 7 5 4 4 2 2 2 1 1 2 4 3 3 4 5 4 4 5 6 6 5 6 6 5 6 7 7 5 5 4 5 7 7 8 9 10 16 20
7 7 8 8 8 6 5 4 3 3 2 1 1 0 1 1 2 3 3 3 4 4 5 6 6 6 5 7 6 6 7 7 8 9 11 7 7 8 10 10 9 12 19
7 7 7 8 7 6 5 5 4 4 3 2 2 2 2 2 1 2 3 3 5 4 5 6 6 7 7 8 7 7 7 7 7 9 11 11 11 8 9 8 8 8 14
Wind_Direction
137 152 160 154 151 148 145 140 133 124 115 108 103 97 93 90 87 82 78 75 71 68 65 64 62 63 63 63 63 63 63 63 63 63 63 62 63 63 61 60 58 53 55
142 153 160 156 154 152 150 144 136 129 121 114 110 104 99 94 90 85 80 75 70 67 66 64 63 63 64 65 64 65 65 65 65 65 64 60 62 63 62 61 61 58 58
140 151 160 158 157 156 153 148 142 137 129 122 117 112 107 99 94 88 82 77 73 69 66 64 62 62 63 64 64 64 65 62 60 62 62 57 58 62 62 61 60 59 58
143 151 161 160 159 159 157 153 147 143 138 131 123 118 114 107 100 94 89 82 77 72 69 68 66 64 64 63 62 62 62 57 51 60 54 51 54 61 61 59 58 58 58
143 152 161 161 162 161 160 157 153 150 146 140 134 128 123 115 107 100 94 87 81 76 72 69 67 65 63 63 61 58 53 41 35 54 55 55 52 58 59 57 56 56 57
144 152 159 163 164 165 164 161 157 156 153 147 142 137 131 124 117 110 103 95 87 81 75 70 67 64 61 59 57 50 37 22 33 53 51 49 45 53 58 56 53 51 52
149 151 158 166 167 168 167 166 162 161 159 154 151 146 141 135 128 122 116 108 99 90 80 73 67 63 60 56 51 42 24 9 31 53 58 53 44 49 52 51 48 47 46
146 147 157 168 170 171 171 170 167 166 165 163 160 157 152 146 141 137 132 124 115 103 91 81 71 63 57 52 45 33 13 357 353 18 62 60 43 39 42 39 35 35 35
143 144 154 168 171 174 175 174 172 172 171 170 169 166 163 159 157 155 151 147 141 129 114 97 79 64 53 42 31 15 355 333 325 337 35 65 34 12 14 13 6 4 6
141 144 152 166 172 175 177 177 176 176 177 176 175 172 171 172 174 173 171 173 171 169 168 167 156 52 341 325 317 315 314 307 297 292 283 127 337 317 314 309 306 309 311
149 153 154 165 170 173 176 179 177 179 180 179 177 173 171 178 187 190 189 186 190 199 211 223 233 247 256 256 254 255 270 275 280 280 265 234 259 276 282 283 279 278 280
170 170 161 164 166 171 176 174 178 179 181 182 182 177 181 194 199 194 189 188 199 214 228 238 243 250 253 248 238 236 245 254 258 260 245 238 251 261 267 271 272 270 268
173 174 169 163 163 167 168 166 175 178 179 188 193 185 190 199 191 173 168 184 201 216 228 234 233 237 240 241 221 219 237 254 263 266 256 248 252 258 261 264 266 267 266
162 166 170 160 157 162 163 166 169 170 173 183 194 190 187 188 189 182 182 190 202 211 220 222 217 233 235 240 236 233 242 246 248 253 255 254 256 258 261 262 262 263 264
152 157 167 159 151 155 156 164 168 169 174 183 191 195 195 184 187 199 202 209 213 215 217 219 228 242 245 243 242 242 245 250 250 249 248 251 256 258 260 262 261 261 261
148 151 158 160 151 148 152 161 169 174 177 182 185 194 203 201 198 203 206 212 220 225 230 229 233 242 245 244 242 244 246 249 252 252 250 250 253 256 258 260 261 261 260
144 141 150 161 152 151 159 168 173 179 179 180 180 194 204 209 212 210 211 217 225 232 238 239 246 257 260 259 256 256 255 253 252 252 252 249 248 251 255 258 259 260 260
122 126 131 140 149 152 158 166 166 176 175 176 185 197 208 212 216 218 216 222 234 238 236 232 233 252 258 257 256 253 252 252 250 250 250 250 248 246 249 255 258 260 261
111 114 119 129 153 148 148 145 143 145 146 160 185 201 213 222 227 227 225 232 242 246 243 236 235 238 257 266 266 264 258 255 255 255 250 248 247 246 245 251 258 261 263
103 112 120 129 137 124 120 118 112 109 120 166 195 211 222 235 242 241 240 244 252 252 251 244 246 248 250 257 272 274 268 264 261 258 256 254 249 247 247 247 251 256 261
101 111 120 124 122 116 115 123 130 154 180 195 211 225 229 233 240 237 235 243 248 247 249 247 249 259 263 262 280 289 275 258 254 254 250 248 246 245 245 245 246 247 254
107 110 113 116 112 106 110 113 116 120 127 128 160 212 244 248 245 237 225 227 236 245 252 253 249 256 262 246 245 297 306 303 267 255 248 242 242 239 239 244 247 247 247
100 104 108 106 103 103 110 109 104 100 114 167 195 196 228 245 250 248 244 243 246 241 247 248 242 244 254 252 214 217 258 273 313 302 291 275 259 248 245 246 247 247 247
102 102 105 106 106 111 117 115 130 137 138 146 148 181 229 215 217 236 250 257 257 255 257 255 246 240 242 253 252 231 230 234 269 295 282 283 291 279 270 263 255 250 248
114 111 112 111 110 110 107 105 98 84 79 70 51 56 305 236 189 213 234 258 265 261 261 262 264 254 241 241 240 244 252 253 244 259 278 272 267 260 261 260 257 254 251
123 120 120 117 115 114 111 108 95 83 52 37 16 6 337 317 266 234 224 247 259 258 259 259 258 257 252 251 248 241 241 244 247 252 268 274 274 266 262 265 266 264 262
Height
1541 1541 1543 1544 1546 1547 1548 1550 1551 1552 1553 1554 1555 1555 1556 1556 1556 1556 1556 1556 1556 1556 1556 1557 1557 1557 1557 1557 1557 1557 1557 1557 1557 1557 1557 1557 1557 1557 1557 1557 1557 1557 1557
1540 1541 1543 1544 1546 1547 1549 1550 1552 1553 1554 1555 1555 1556 1556 1557 1557 1557 1557 1557 1557 1557 1557 1557 1557 1557 1557 1557 1557 1557 1558 1558 1558 1558 1558 1558 1558 1558 1558 1558 1558 1558 1558
1540 1541 1542 1544 1546 1547 1549 1550 1552 1553 1554 1555 1556 1557 1557 1558 1558 1558 1558 1558 1558 1558 1558 1557 1557 1557 1557 1557 1557 1558 1558 1559 1559 1559 1559 1559 1559 1559 1558 1558 1558 1558 1558
1540 1541 1542 1544 1545 1547 1549 1550 1552 1553 1554 1556 1556 1557 1558 1558 1558 1558 1558 1558 1558 1558 1558 1558 1558 1558 1558 1558 1558 1558 1559 1559 1560 1560 1559 1559 1559 1559 1559 1559 1558 1558 1558
1539 1540 1542 1544 1545 1547 1549 1550 1552 1553 1555 1556 1557 1557 1558 1559 1559 1559 1559 1559 1559 1559 1559 1559 1559 1559 1559 1559 1559 1559 1560 1560 1560 1560 1560 1560 1560 1560 1559 1559 1559 1559 1558
1539 1540 1541 1543 1545 1547 1548 1550 1552 1553 1555 1556 1557 1558 1559 1559 1559 1559 1559 1559 1559 1560 1559 1559 1559 1559 1560 1559 1560 1560 1560 1560 1560 1560 1560 1560 1560 1560 1560 1559 1559 1559 1559
1539 1539 1541 1543 1545 1546 1548 1550 1552 1553 1555 1556 1557 1558 1559 1559 1559 1560 1560 1560 1560 1560 1560 1560 1560 1560 1560 1560 1560 1561 1561 1561 1561 1561 1561 1561 1561 1560 1560 1560 1559 1559 1559
1538 1539 1540 1542 1544 1546 1548 1550 1552 1553 1555 1556 1557 1558 1559 1559 1560 1560 1560 1560 1560 1560 1561 1561 1561 1561 1561 1561 1561 1561 1561 1561 1561 1561 1561 1561 1561 1561 1560 1560 1559 1559 1559
1538 1538 1539 1541 1543 1545 1547 1549 1551 1553 1554 1556 1557 1558 1559 1560 1560 1560 1560 1561 1561 1561 1561 1561 1561 1561 1561 1561 1561 1561 1561 1561 1561 1561 1561 1561 1561 1560 1560 1559 1559 1559 1558
1536 1537 1537 1539 1542 1544 1546 1548 1551 1552 1554 1556 1557 1558 1559 1559 1560 1560 1560 1561 1561 1561 1561 1561 1561 1561 1561 1561 1561 1561 1561 1561 1561 1560 1560 1560 1560 1560 1559 1559 1559 1558 1558
1535 1536 1536 1538 1540 1542 1545 1547 1550 1552 1553 1555 1556 1557 1558 1559 1559 1560 1560 1560 1561 1561 1561 1561 1561 1561 1561 1560 1560 1560 1560 1560 1560 1560 1559 1559 1559 1559 1558 1558 1558 1557 1557
1532 1534 1535 1536 1538 1541 1543 1546 1548 1550 1552 1554 1555 1556 1557 1558 1558 1559 1559 1560 1560 1560 1560 1560 1560 1560 1560 1560 1559 1559 1559 1559 1559 1559 1558 1558 1558 1558 1557 1556 1556 1555 1555
1529 1532 1534 1536 1537 1539 1542 1544 1546 1548 1550 1552 1554 1555 1556 1557 1558 1558 1559 1559 1559 1559 1559 1559 1559 1559 1558 1558 1557 1557 1557 1557 1557 1557 1556 1556 1556 1556 1555 1554 1554 1553 1553
1527 1529 1532 1535 1536 1538 1540 1543 1545 1547 1548 1550 1552 1553 1555 1556 1556 1557 1557 1557 1557 1557 1557 1557 1557 1557 1556 1556 1556 1555 1555 1555 1554 1554 1554 1553 1553 1553 1552 1552 1551 1550 1550
1525 1526 1530 1533 1535 1537 1539 1541 1543 1545 1547 1548 1550 1551 1553 1554 1554 1555 1555 1555 1555 1555 1555 1555 1555 1555 1554 1554 1553 1552 1552 1551 1551 1550 1550 1549 1549 1549 1548 1548 1547 1547 1546
1522 1524 1527 1530 1533 1535 1537 1539 1541 1543 1545 1546 1548 1549 1550 1552 1552 1553 1553 1553 1554 1554 1553 1553 1553 1552 1551 1551 1550 1549 1548 1547 1546 1545 1544 1544 1544 1543 1543 1543 1542 1542 1542
1521 1522 1525 1528 1531 1533 1535 1538 1540 1542 1544 1545 1546 1547 1548 1549 1550 1551 1551 1551 1551 1551 1551 1550 1550 1549 1548 1547 1546 1545 1544 1542 1541 1540 1539 1538 1537 1537 1536 1536 1536 1536 1536
1519 1521 1523 1526 1529 1531 1534 1536 1538 1540 1542 1543 1544 1545 1546 1547 1548 1548 1548 1548 1548 1548 1548 1547 1546 1545 1544 1543 1541 1540 1538 1537 1535 1534 1533 1532 1531 1530 1529 1529 1529 1529 1529
1517 1519 1521 1524 1528 1530 1532 1535 1537 1538 1540 1541 1542 1542 1543 1544 1545 1545 1545 1545 1545 1545 1544 1543 1542 1541 1539 1538 1536 1534 1533 1531 1529 1528 1526 1525 1524 1523 1522 1521 1521 1520 1520
1516 1518 1520 1523 1526 1529 1531 1532 1534 1536 1537 1538 1539 1540 1540 1541 1541 1541 1541 1541 1541 1540 1540 1539 1538 1537 1535 1533 1531 1528 1526 1525 1523 1521 1520 1518 1516 1515 1515 1514 1513 1513 1512
1516 1518 1520 1522 1525 1527 1529 1530 1532 1533 1535 1535 1536 1537 1537 1537 1537 1537 1537 1537 1536 1536 1535 1534 1533 1532 1531 1530 1527 1522 1519 1517 1515 1513 1512 1510 1509 1509 1508 1507 1507 1505 1504
1516 1518 1520 1522 1524 1526 1528 1529 1531 1532 1533 1534 1534 1534 1534 1534 1534 1534 1533 1533 1532 1531 1531 1530 1529 1527 1526 1526 1523 1519 1513 1509 1507 1507 1506 1505 1504 1503 1502 1501 1500 1499 1497
1517 1518 1520 1522 1524 1526 1527 1529 1530 1531 1532 1532 1532 1532 1532 1532 1531 1531 1530 1529 1529 1528 1527 1526 1525 1523 1522 1521 1520 1518 1513 1505 1502 1500 1501 1501 1499 1498 1497 1495 1493 1492 1490
1517 1519 1520 1522 1524 1526 1527 1528 1529 1530 1530 1531 1531 1530 1530 1529 1528 1528 1527 1526 1525 1524 1523 1522 1521 1520 1518 1516 1515 1513 1511 1507 1502 1492 1490 1492 1492 1491 1490 1488 1486 1484 1483
1517 1519 1520 1522 1524 1525 1526 1528 1528 1529 1529 1529 1529 1528 1528 1527 1526 1525 1524 1523 1522 1521 1520 1518 1517 1515 1514 1511 1509 1507 1505 1502 1499 1493 1483 1481 1481 1481 1481 1480 1478 1476 1475
1516 1518 1520 1522 1523 1524 1525 1526 1526 1527 1527 1527 1526 1526 1525 1524 1523 1522 1521 1520 1518 1517 1515 1514 1512 1510 1508 1506 1504 1501 1499 1496 1492 1488 1480 1474 1471 1471 1471 1471 1470 1469 1467